Theta_e
289 289 289 288 287 287 286 286 285 285 285 285 284 284 285 283 283 283 284 284 285 285 284 284 285 286 286 287 287 288 288 291 294 290 289 289 290 290 291 293 292 293 292
290 289 288 287 287 286 285 285 285 285 285 284 284 283 283 283 282 282 283 284 284 284 284 284 284 285 285 286 287 288 288 288 290 289 288 288 288 289 289 290 290 291 291
288 288 287 286 285 285 285 285 285 285 285 284 284 283 283 283 282 282 282 284 284 284 285 285 284 284 285 285 286 286 288 289 288 288 288 287 288 288 288 289 290 290 290
286 286 285 285 285 284 284 285 285 285 285 284 283 282 282 282 281 281 283 284 283 283 283 285 284 283 284 284 285 285 286 288 289 290 288 288 288 288 289 289 289 288 288
286 285 285 284 284 284 284 284 285 285 285 284 283 283 283 282 281 281 282 284 284 283 282 283 284 282 283 284 284 284 284 287 289 288 289 288 287 288 289 290 290 289 288
285 284 284 284 284 284 284 284 285 285 284 284 283 283 283 282 280 281 282 284 284 284 283 282 283 282 281 283 285 284 283 283 285 286 286 286 286 286 288 289 290 291 290
285 284 283 283 283 283 283 284 284 285 285 285 284 284 283 282 280 280 282 284 284 283 283 281 281 281 279 281 284 286 284 282 283 284 284 283 283 284 286 288 289 290 289
284 284 283 283 282 282 283 284 284 285 285 285 284 284 283 282 279 279 280 283 284 284 283 281 280 280 278 279 282 283 284 284 283 283 282 282 282 282 284 287 288 290 290
284 284 283 283 282 282 283 283 284 285 285 285 285 284 283 282 279 279 279 282 282 284 283 282 279 278 278 278 281 281 282 283 284 284 283 283 282 282 283 286 286 288 290
284 283 283 283 282 282 282 283 284 284 284 284 284 284 283 282 280 279 278 279 279 282 282 281 279 277 277 277 279 279 280 280 283 285 285 285 285 284 283 284 284 286 287
282 282 282 282 281 282 282 282 282 283 283 283 284 283 283 281 280 278 278 278 277 280 280 279 278 277 278 277 277 278 278 280 282 283 283 284 284 284 285 284 284 284 285
282 281 281 281 281 281 281 282 281 281 282 281 282 282 281 280 278 277 277 277 277 278 278 278 278 278 278 278 278 278 279 279 280 281 282 282 283 284 285 285 285 285 285
281 281 281 280 281 280 279 280 279 279 279 279 279 280 279 279 277 276 276 277 277 277 278 279 278 279 279 279 278 278 278 278 279 280 280 281 281 282 284 284 285 285 286
281 281 281 281 281 281 280 278 278 276 276 277 276 277 277 277 275 275 275 276 276 277 278 279 278 278 278 278 278 278 278 278 278 279 279 280 281 281 282 282 283 284 285
281 280 281 280 280 280 280 279 278 276 274 275 274 275 275 275 275 275 275 276 277 277 278 278 277 277 277 277 277 277 277 277 277 278 279 279 279 280 281 281 282 283 284
281 280 279 280 280 280 280 280 279 277 276 275 274 274 274 275 275 275 276 277 277 277 277 277 277 276 276 276 276 277 277 277 277 278 278 279 279 279 280 281 282 283 283
279 280 280 279 279 279 279 279 279 279 278 277 275 274 274 275 275 275 276 277 277 276 276 276 276 276 276 276 276 276 276 277 277 278 279 278 279 279 280 281 281 282 282
279 278 279 279 278 279 278 278 278 278 278 278 277 274 274 275 276 276 276 277 277 276 275 275 275 275 275 275 275 275 276 277 277 277 278 278 279 279 280 281 281 282 282
278 278 279 278 278 278 278 278 278 278 277 277 277 275 274 276 276 276 276 276 276 276 275 274 274 274 274 273 273 274 275 276 277 277 278 278 278 279 280 281 282 282 283
277 276 277 278 278 278 277 277 277 277 277 277 276 274 273 276 276 275 275 275 275 274 274 273 273 273 272 272 273 274 275 275 275 275 276 277 278 279 281 282 283 284 285
278 277 277 277 277 277 277 277 277 276 276 276 276 274 273 275 275 275 275 274 274 274 273 273 273 272 272 272 273 273 273 274 274 274 275 276 277 279 281 282 283 284 285
278 277 277 277 277 276 276 276 276 276 276 276 275 275 274 275 274 274 274 274 273 273 273 273 273 272 272 272 272 272 272 272 272 272 273 275 277 280 282 283 283 284 284
277 277 277 277 277 276 277 276 275 275 275 275 275 275 274 274 274 274 273 273 273 273 273 273 272 272 272 272 271 271 271 270 270 272 273 275 278 280 281 282 282 283 283
277 277 277 276 276 276 276 276 275 275 275 275 275 274 274 273 273 273 272 272 271 272 273 273 272 272 272 272 271 270 269 270 272 274 276 278 279 280 281 282 282 283 283
278 277 277 277 277 277 277 276 275 275 275 274 274 274 273 272 272 272 271 271 270 272 273 273 273 273 272 271 270 270 269 271 274 275 277 278 278 279 279 280 281 282 282
277 277 277 277 276 276 276 276 275 274 274 273 273 273 273 272 271 271 270 270 270 272 273 273 273 273 271 271 269 270 270 273 274 276 277 277 277 279 278 279 280 281 281
Wind_Speed
17 17 18 19 20 20 21 22 22 23 24 24 25 28 27 31 31 28 26 25 28 28 30 31 29 30 31 27 25 23 18 16 4 8 12 17 23 21 21 20 20 23 29
16 17 18 19 20 20 21 22 22 22 22 23 24 26 29 30 32 29 25 26 24 26 29 27 32 29 32 29 28 26 23 24 11 7 12 17 20 20 23 23 19 25 24
17 17 19 20 20 21 21 21 21 22 23 24 25 26 28 29 34 29 23 22 24 26 23 22 29 33 30 30 30 28 24 19 19 12 10 15 16 23 17 17 26 25 27
16 17 18 20 20 20 20 20 21 22 23 24 25 26 26 29 35 32 28 17 22 23 25 21 26 29 28 29 27 27 26 21 19 14 14 13 14 19 15 17 16 30 29
16 17 18 18 19 19 20 20 20 21 22 24 25 27 26 26 36 35 32 27 20 22 23 25 24 29 29 24 24 26 26 22 18 17 14 17 20 18 21 18 14 11 25
16 17 17 18 19 19 20 20 20 21 22 21 23 24 26 27 37 35 32 25 22 22 23 25 25 28 30 30 19 20 25 24 22 20 18 16 19 20 20 18 18 14 3
15 16 18 18 19 19 20 21 21 22 22 22 23 25 26 27 37 37 33 23 23 23 22 25 25 27 31 29 24 17 20 22 21 18 18 17 18 19 17 17 18 16 13
14 16 17 18 19 19 20 21 21 21 22 23 23 25 27 28 36 37 35 25 23 21 22 21 26 26 31 31 23 21 19 19 17 16 15 13 14 16 15 13 13 6 9
14 15 16 16 17 19 20 21 21 21 22 22 23 24 26 28 34 36 34 27 24 22 21 20 26 27 29 30 23 22 19 21 19 13 15 17 12 21 19 14 16 12 7
14 14 14 15 15 17 18 18 20 20 21 21 22 23 24 27 31 35 33 27 25 24 21 22 24 28 27 28 23 23 21 21 20 17 15 14 14 16 18 16 14 12 12
12 13 14 14 14 16 17 19 20 21 20 21 22 22 24 26 30 34 33 30 28 23 23 25 25 28 25 25 23 23 21 18 17 16 16 16 17 17 17 16 14 12 10
11 12 13 14 15 16 17 19 20 22 22 23 23 23 24 26 30 34 32 30 29 21 22 23 24 25 23 21 23 22 20 18 18 17 18 19 19 20 18 16 13 12 8
10 10 10 14 14 15 18 19 20 22 22 23 24 24 26 27 31 34 32 29 29 23 21 20 22 22 22 22 22 23 22 22 20 19 19 18 18 18 16 16 15 13 9
10 10 11 13 14 15 14 18 18 21 22 23 24 25 25 26 32 35 33 30 32 27 23 22 22 22 21 22 23 24 23 23 22 21 19 19 18 18 18 18 15 17 13
8 11 11 12 14 14 14 13 16 15 16 20 22 22 25 28 32 31 30 27 30 28 21 23 25 25 25 24 24 23 22 23 22 21 21 20 19 18 18 17 16 15 14
8 9 12 12 13 14 14 13 16 18 16 15 19 20 22 23 28 31 30 25 27 26 23 24 25 25 25 25 25 23 24 24 23 21 20 20 20 20 20 18 16 15 14
9 9 10 11 12 14 14 15 16 16 15 16 21 21 25 26 28 30 30 25 25 28 26 25 24 25 25 24 24 24 24 24 21 20 20 20 20 19 19 18 18 17 16
7 10 9 10 12 12 13 14 15 17 18 20 21 25 27 27 28 29 30 26 29 30 28 26 25 25 25 24 24 23 24 23 23 22 20 20 19 19 18 18 18 17 17
7 7 8 9 11 11 13 14 15 16 17 19 22 27 29 27 26 28 29 29 27 28 28 27 26 26 26 24 23 23 23 23 22 21 20 20 19 18 17 17 17 16 16
7 8 8 9 10 11 12 14 15 17 18 19 22 26 28 27 29 30 29 29 28 28 28 26 26 25 25 24 25 26 25 24 23 23 22 21 20 18 18 18 18 18 18
5 6 8 9 10 10 11 13 14 15 17 18 19 21 26 23 25 26 28 29 29 28 29 27 27 27 26 26 26 27 25 24 23 22 22 22 21 21 20 19 19 21 19
4 5 7 9 9 10 11 12 13 14 15 17 18 20 23 22 23 25 26 27 26 27 28 25 25 25 27 27 27 28 26 24 24 24 23 22 22 22 23 21 21 20 20
4 5 7 7 8 8 10 11 12 13 14 16 17 19 21 22 22 24 24 26 25 28 30 27 27 29 29 27 24 24 23 24 25 22 22 24 25 24 23 21 22 20 20
4 4 6 6 7 8 9 10 11 12 14 15 16 18 19 20 21 23 23 26 26 28 31 29 30 29 30 29 27 25 23 24 22 23 25 23 24 24 23 21 22 21 21
3 4 5 5 6 7 7 9 10 11 12 14 15 16 18 19 20 22 23 26 27 28 30 30 33 31 30 29 29 27 27 25 24 25 21 21 19 22 22 21 24 22 23
3 3 3 3 4 5 6 7 9 10 11 12 13 14 16 18 19 20 23 26 29 28 29 30 33 32 31 31 30 29 30 26 27 25 23 24 21 22 25 22 22 21 22
Wind_Direction
358 355 355 359 1 2 3 3 359 357 358 358 358 356 358 2 359 356 353 356 356 356 359 2 356 3 3 2 3 7 8 5 87 39 27 38 47 44 48 57 52 56 43
357 356 1 359 1 2 4 2 359 359 359 358 359 358 358 2 359 359 354 357 358 353 353 5 0 2 10 6 6 7 20 30 40 54 25 29 35 40 49 57 58 62 55
359 359 3 2 2 3 1 1 359 358 359 359 0 2 360 3 359 355 351 354 358 358 356 3 8 5 8 6 11 8 11 27 42 40 34 31 31 36 37 45 55 58 57
3 3 6 3 1 2 0 0 360 359 1 2 1 0 1 3 0 358 350 348 2 3 359 6 18 7 4 11 15 14 9 22 21 35 40 32 29 24 32 28 37 46 43
4 4 7 3 3 3 2 1 0 2 2 2 1 3 2 8 3 357 350 343 5 5 8 5 17 13 6 6 19 22 19 18 22 30 26 31 20 17 19 14 27 35 43
5 4 6 7 5 3 2 0 1 3 4 0 2 3 3 7 4 359 354 350 6 8 11 9 9 13 7 2 9 31 37 29 26 25 26 24 20 11 13 21 23 30 30
8 6 5 9 8 3 2 1 0 2 2 3 4 5 6 10 5 2 1 4 8 10 12 11 8 10 10 3 7 17 28 33 32 29 27 23 15 7 7 21 23 39 46
9 7 5 8 8 2 3 3 360 0 2 2 4 5 6 7 7 6 1 6 7 11 12 14 10 7 7 1 4 10 17 20 20 31 33 24 23 12 7 18 8 31 57
8 6 2 5 7 3 3 0 358 358 2 2 7 7 7 7 9 6 7 6 1 6 9 19 16 7 5 6 10 12 11 11 10 7 28 27 23 26 30 32 24 30 34
3 2 359 4 6 3 0 359 359 1 4 4 6 9 9 8 9 9 9 5 0 359 4 5 10 7 7 10 13 11 8 357 4 9 18 22 22 23 27 34 30 27 15
0 4 360 6 7 4 3 6 5 5 7 7 6 9 9 9 7 7 9 9 2 357 1 0 360 2 5 10 15 14 5 357 7 12 17 18 21 21 24 24 25 22 17
4 8 5 5 10 9 9 10 11 9 9 9 6 8 8 6 6 4 5 7 5 1 359 358 357 360 5 11 14 11 11 15 14 15 18 15 11 9 13 16 16 13 10
6 358 2 10 14 16 18 15 15 13 11 8 7 5 3 4 2 1 3 4 5 3 354 356 360 3 7 11 12 13 17 16 12 13 11 10 4 2 6 10 11 10 7
358 8 14 17 12 18 21 22 20 16 12 9 6 2 360 2 1 359 358 359 2 360 359 4 7 9 12 11 12 15 16 12 10 7 5 2 4 7 7 7 5 4 1
18 18 16 18 16 17 20 20 18 15 13 7 2 359 358 357 357 359 0 359 2 359 4 8 10 11 11 11 11 12 12 11 10 5 2 2 4 4 5 2 3 0 0
28 23 21 20 20 19 17 15 9 7 6 10 9 8 4 0 359 2 4 6 9 10 14 14 12 10 9 5 5 5 6 5 3 1 1 2 360 358 358 1 4 1 357
35 25 23 23 23 18 15 13 5 5 11 10 6 11 10 3 4 6 8 9 13 15 18 14 11 8 6 4 3 2 359 358 357 359 360 360 358 356 355 357 357 358 355
35 33 27 28 25 18 16 13 8 7 6 7 7 10 8 7 8 9 11 13 13 15 14 10 7 6 4 2 1 359 354 356 358 358 359 357 358 356 353 354 352 349 344
41 27 26 30 26 20 18 14 12 11 10 8 5 6 6 6 9 13 15 17 10 9 7 6 4 2 2 0 358 355 354 354 355 356 357 357 357 353 350 351 346 344 338
42 40 33 34 27 22 19 15 13 12 10 10 10 6 2 5 9 9 12 11 9 7 4 2 1 2 360 357 354 354 353 355 356 356 354 354 352 348 346 344 342 335 330
48 33 39 39 30 21 17 15 12 12 11 10 8 4 6 8 7 8 8 9 7 3 2 360 359 360 359 356 354 353 353 353 353 352 352 350 348 344 343 336 336 342 351
59 48 45 40 28 23 19 17 15 12 11 9 6 5 8 12 10 8 7 6 5 4 1 359 359 359 357 355 353 352 352 351 350 350 347 345 343 343 347 351 353 354 356
73 61 52 42 31 25 25 22 19 16 13 12 10 9 10 10 9 7 5 4 4 4 3 4 1 1 0 359 358 356 352 349 346 349 347 342 342 350 354 357 356 357 358
87 72 62 50 41 33 28 23 20 19 17 15 13 12 10 9 7 5 4 3 5 8 7 5 4 3 1 2 1 360 357 359 7 5 3 353 356 359 0 1 2 3 4
106 86 70 57 46 34 24 22 19 18 17 16 14 13 10 9 8 6 5 4 7 7 7 6 9 5 3 4 3 4 8 15 25 17 10 7 4 7 8 6 5 6 8
128 111 92 73 58 40 29 22 18 17 14 13 13 13 9 8 7 6 6 8 8 9 9 12 12 11 12 11 8 10 18 23 30 23 17 16 14 14 14 12 11 12 11